Location: Newark
(50.0306°N, 2.3272°E)
Time: 07:39:39
(UTC+00:00)

A-11 Canister half - Pass Details

Date: 08 December 2019
Orbit: 1525 x 1684 km, 47.3° (Epoch: 27 January)

Event Time Altitude Azimuth Distance (km) Brightness Sun altitude
Rises 05:43:11 0° 210° (SSW) 4,907 11.5 -17.1°
Reaches altitude 10° 05:46:38 10° 202° (SSW) 3,932 11.1 -16.5°
Maximum altitude 05:55:33 37° 140° (SE) 2,415 10.5 -15.2°
Drops below altitude 10° 06:04:26 10° 79° (ENE) 3,932 12.1 -13.8°
Sets 06:07:52 0° 71° (ENE) 4,908 12.5 -13.3°
